Total_Precipitation_Accumulation
0.08 0.13 0.19 0.26 0.29 0.30 0.35 0.46 0.57 0.68 0.70 0.74 0.73 0.68 0.69 0.68 0.63 0.55 0.51 0.58 0.53 0.43 0.38 0.37 0.35 0.33 0.31 0.28 0.25 0.23 0.22 0.20 0.18 0.18 0.18 0.15 0.13 0.11 0.07 0.04 0.03 0.02 0.03
0.09 0.14 0.19 0.24 0.27 0.29 0.32 0.42 0.54 0.64 0.69 0.68 0.71 0.65 0.65 0.65 0.65 0.60 0.54 0.54 0.60 0.54 0.44 0.39 0.37 0.36 0.34 0.30 0.26 0.23 0.24 0.24 0.21 0.20 0.23 0.22 0.18 0.14 0.09 0.06 0.04 0.02 0.02
0.11 0.15 0.18 0.21 0.24 0.27 0.29 0.33 0.46 0.59 0.66 0.66 0.74 0.79 0.81 0.81 0.75 0.69 0.59 0.54 0.56 0.56 0.49 0.42 0.37 0.37 0.37 0.35 0.31 0.27 0.24 0.25 0.23 0.20 0.30 0.39 0.29 0.15 0.09 0.07 0.05 0.04 0.02
0.12 0.16 0.20 0.23 0.24 0.27 0.29 0.32 0.39 0.53 0.66 0.66 0.70 0.75 0.81 0.78 0.70 0.64 0.60 0.57 0.57 0.58 0.52 0.48 0.44 0.38 0.36 0.35 0.34 0.31 0.27 0.28 0.29 0.24 0.22 0.27 0.29 0.32 0.19 0.08 0.08 0.08 0.06
0.13 0.17 0.21 0.26 0.29 0.33 0.38 0.36 0.42 0.49 0.65 0.67 0.63 0.66 0.67 0.70 0.67 0.70 0.68 0.66 0.64 0.63 0.59 0.52 0.50 0.47 0.41 0.37 0.36 0.34 0.31 0.31 0.31 0.29 0.26 0.22 0.19 0.21 0.30 0.18 0.10 0.13 0.13
0.13 0.17 0.23 0.31 0.35 0.38 0.47 0.45 0.47 0.50 0.60 0.70 0.65 0.63 0.62 0.65 0.70 0.72 0.76 0.76 0.73 0.69 0.66 0.60 0.51 0.48 0.47 0.43 0.40 0.37 0.35 0.31 0.28 0.28 0.29 0.30 0.31 0.24 0.27 0.26 0.13 0.09 0.08
0.14 0.17 0.24 0.34 0.35 0.37 0.49 0.50 0.49 0.52 0.54 0.66 0.70 0.63 0.60 0.59 0.62 0.68 0.70 0.74 0.78 0.74 0.69 0.66 0.59 0.51 0.45 0.43 0.41 0.42 0.38 0.33 0.31 0.30 0.29 0.30 0.30 0.28 0.31 0.35 0.26 0.16 0.09
0.14 0.18 0.22 0.29 0.34 0.34 0.43 0.51 0.51 0.53 0.52 0.58 0.69 0.71 0.65 0.62 0.58 0.62 0.67 0.68 0.70 0.69 0.63 0.62 0.58 0.51 0.45 0.40 0.40 0.40 0.37 0.35 0.34 0.31 0.30 0.34 0.30 0.33 0.39 0.46 0.52 0.43 0.19
0.19 0.21 0.22 0.24 0.26 0.32 0.37 0.44 0.54 0.57 0.56 0.54 0.62 0.76 0.81 0.71 0.61 0.55 0.60 0.63 0.63 0.64 0.63 0.61 0.60 0.53 0.48 0.44 0.40 0.39 0.36 0.36 0.35 0.35 0.35 0.38 0.35 0.37 0.39 0.44 0.58 0.77 0.58
0.22 0.25 0.25 0.26 0.25 0.27 0.33 0.38 0.48 0.57 0.60 0.54 0.56 0.68 0.89 0.87 0.72 0.62 0.57 0.58 0.59 0.61 0.64 0.64 0.60 0.58 0.51 0.49 0.47 0.43 0.40 0.40 0.39 0.41 0.43 0.43 0.41 0.40 0.41 0.46 0.49 0.62 0.73
0.16 0.20 0.23 0.26 0.27 0.26 0.32 0.36 0.40 0.50 0.57 0.52 0.54 0.61 0.74 0.93 0.88 0.74 0.62 0.58 0.59 0.61 0.62 0.63 0.62 0.60 0.60 0.57 0.54 0.48 0.45 0.45 0.43 0.43 0.47 0.47 0.46 0.48 0.44 0.47 0.50 0.49 0.55
0.12 0.14 0.18 0.23 0.25 0.27 0.30 0.32 0.36 0.44 0.52 0.51 0.52 0.56 0.59 0.77 0.96 0.89 0.74 0.63 0.60 0.62 0.64 0.63 0.65 0.63 0.64 0.63 0.62 0.57 0.49 0.48 0.46 0.44 0.46 0.47 0.45 0.46 0.42 0.44 0.46 0.44 0.41
0.12 0.13 0.17 0.19 0.22 0.27 0.32 0.31 0.31 0.38 0.45 0.51 0.53 0.51 0.53 0.60 0.72 0.88 0.82 0.70 0.62 0.59 0.60 0.61 0.64 0.70 0.71 0.68 0.61 0.61 0.57 0.51 0.47 0.46 0.48 0.47 0.46 0.45 0.40 0.43 0.42 0.37 0.34
0.12 0.15 0.16 0.16 0.19 0.24 0.33 0.31 0.30 0.36 0.37 0.44 0.51 0.47 0.44 0.48 0.54 0.68 0.83 0.79 0.68 0.61 0.58 0.56 0.60 0.69 0.84 0.83 0.72 0.72 0.66 0.57 0.50 0.43 0.40 0.44 0.52 0.50 0.47 0.49 0.43 0.39 0.43
0.09 0.14 0.16 0.14 0.19 0.25 0.34 0.34 0.28 0.29 0.29 0.34 0.42 0.43 0.44 0.47 0.50 0.53 0.65 0.77 0.74 0.62 0.56 0.54 0.55 0.60 0.93 1.27 1.21 1.11 0.90 0.64 0.49 0.38 0.35 0.41 0.52 0.55 0.69 0.79 0.69 0.68 0.77
0.10 0.12 0.15 0.14 0.17 0.23 0.32 0.37 0.30 0.28 0.25 0.29 0.34 0.37 0.43 0.50 0.53 0.52 0.58 0.64 0.70 0.68 0.61 0.57 0.54 0.53 0.79 1.33 1.41 1.14 0.80 0.62 0.52 0.44 0.36 0.36 0.47 0.48 0.56 0.70 0.79 0.88 1.02
0.12 0.12 0.14 0.15 0.17 0.20 0.28 0.34 0.32 0.29 0.26 0.27 0.32 0.34 0.35 0.45 0.50 0.53 0.59 0.60 0.62 0.68 0.68 0.58 0.50 0.46 0.61 1.15 1.27 0.98 0.71 0.58 0.51 0.44 0.39 0.38 0.44 0.50 0.53 0.59 0.61 0.65 0.80
0.13 0.12 0.14 0.15 0.15 0.19 0.23 0.28 0.29 0.28 0.27 0.28 0.33 0.35 0.33 0.37 0.44 0.53 0.55 0.56 0.58 0.57 0.59 0.58 0.52 0.47 0.50 0.97 1.12 0.89 0.69 0.58 0.49 0.41 0.40 0.38 0.41 0.52 0.71 0.70 0.64 0.56 0.60
0.12 0.12 0.13 0.13 0.15 0.19 0.21 0.27 0.29 0.26 0.27 0.32 0.35 0.34 0.31 0.32 0.38 0.45 0.50 0.53 0.54 0.49 0.49 0.53 0.54 0.50 0.47 0.75 1.00 0.88 0.70 0.63 0.55 0.44 0.40 0.40 0.41 0.55 0.79 0.80 0.66 0.50 0.46
0.11 0.11 0.12 0.11 0.16 0.20 0.20 0.25 0.26 0.21 0.24 0.29 0.34 0.31 0.27 0.25 0.25 0.32 0.45 0.50 0.52 0.49 0.47 0.50 0.52 0.48 0.45 0.61 0.85 0.89 0.71 0.63 0.57 0.52 0.45 0.49 0.57 0.68 0.81 0.76 0.71 0.77 0.61
0.10 0.11 0.12 0.12 0.17 0.20 0.18 0.23 0.25 0.21 0.22 0.29 0.32 0.26 0.23 0.23 0.23 0.28 0.40 0.49 0.54 0.56 0.51 0.48 0.47 0.45 0.44 0.54 0.69 0.90 0.77 0.62 0.58 0.60 0.55 0.49 0.64 0.71 0.76 0.82 0.80 0.97 0.90
0.10 0.08 0.11 0.12 0.16 0.19 0.18 0.24 0.27 0.24 0.25 0.28 0.25 0.22 0.21 0.22 0.23 0.28 0.37 0.49 0.55 0.58 0.54 0.48 0.45 0.43 0.43 0.51 0.65 0.81 0.83 0.74 0.60 0.53 0.46 0.48 0.66 0.75 0.82 0.79 0.82 0.90 0.85
0.12 0.10 0.10 0.12 0.16 0.18 0.19 0.25 0.29 0.26 0.27 0.26 0.23 0.21 0.21 0.21 0.23 0.29 0.39 0.49 0.54 0.54 0.52 0.48 0.44 0.41 0.41 0.51 0.67 0.67 0.70 0.75 0.62 0.51 0.59 0.65 0.74 0.75 0.67 0.67 0.75 0.74 0.67
0.15 0.13 0.12 0.14 0.19 0.20 0.20 0.25 0.29 0.26 0.24 0.22 0.24 0.23 0.25 0.28 0.30 0.33 0.39 0.45 0.53 0.58 0.50 0.44 0.43 0.40 0.42 0.59 0.72 0.66 0.64 0.71 0.73 0.70 0.71 0.77 0.75 0.67 0.57 0.56 0.57 0.53 0.57
0.18 0.16 0.15 0.16 0.22 0.24 0.25 0.28 0.25 0.23 0.23 0.22 0.26 0.30 0.31 0.34 0.37 0.37 0.38 0.41 0.42 0.54 0.51 0.43 0.44 0.49 0.55 0.68 0.79 0.77 0.70 0.72 0.77 0.89 0.94 0.84 0.75 0.71 0.60 0.49 0.41 0.40 0.51
0.20 0.18 0.17 0.19 0.24 0.27 0.32 0.31 0.23 0.20 0.22 0.26 0.28 0.33 0.36 0.37 0.37 0.35 0.37 0.43 0.44 0.47 0.44 0.40 0.42 0.43 0.56 0.68 0.72 0.76 0.75 0.80 0.89 0.99 0.95 0.74 0.61 0.57 0.53 0.50 0.45 0.39 0.39